Flag for U.S.A. Weather past 2 weeks in Aurora, Colorado, U.S.A.

Now
74 °F

Broken clouds.


Feels Like: 77 °F
Forecast: 48 / 72 °F
Wind: 5 mph from Northwest

Location: Buckley Air Force Base

Current Time: May 27, 2015 at 2:53:16 PM

Latest Report: May 27, 2015 at 1:58 PM


Visibility: 10 mi

Pressure: 29.88 "Hg

Humidity: 29%

Dew point: 40 °F

Location of AuroraLocation

Historic Weather in Aurora — Graph

°F

Aurora temperature yesterday

Maximum temperature yesterday: 70 °F (at 2:58 PM)
Minimum temperature yesterday: 44 °F (at 5:58 AM)
Average temperature yesterday: 56 °F

Past Weeks' High & Low Weather Summary

 TemperatureHumidityPressure
High74 °F (May 27, 1:58 PM)100% (May 19, 4:58 AM)30.31 "Hg (May 19, 4:58 AM)
Low35 °F (May 20, 6:58 AM)22% (May 14, 1:58 PM)29.54 "Hg (May 15, 3:58 PM)
Average51 °F75%29.91 "Hg
* Reported May 12 1:58 PM — May 27 1:58 PM, Aurora, Weather by CustomWeather, © 2015

Note: Actual official high and low records may vary slightly from our data, if they occured in-between our weather recording intervals... More about our weather records

Advertising

Aurora weather history for previous 24 hours

 ConditionsComfort  
Time TempWeatherWind HumidityBarometerVisibility
1:58 PM
Wed, May 27
74 °FBroken clouds.5 mph29%29.88 "Hg10 mi
12:58 PM72 °FBroken clouds.6 mph32%29.90 "Hg10 mi
11:58 AM70 °FBroken clouds.8 mph40%29.91 "Hg10 mi
10:58 AM69 °FBroken clouds.5 mph36%29.92 "Hg10 mi
9:58 AM66 °FScattered clouds.5 mph41%29.92 "Hg10 mi
8:58 AM62 °FScattered clouds.8 mph46%29.92 "Hg10 mi
7:58 AM57 °FScattered clouds.6 mph56%29.94 "Hg10 mi
6:58 AM51 °FScattered clouds.9 mph70%29.93 "Hg10 mi
5:58 AM47 °FPassing clouds.No wind81%29.94 "Hg10 mi
4:58 AM49 °FPassing clouds.9 mph80%29.92 "Hg10 mi
3:58 AM50 °FPassing clouds.10 mph78%29.91 "Hg10 mi
2:58 AM51 °FPartly cloudy.12 mph75%29.91 "Hg10 mi
1:58 AM52 °FPartly cloudy.14 mph72%29.90 "Hg10 mi
12:58 AM53 °FPartly cloudy.12 mph73%29.92 "Hg10 mi
11:58 PM
Tue, May 26
53 °FPartly cloudy.13 mph73%29.92 "Hg10 mi
10:58 PM53 °FPartly cloudy.8 mph80%29.94 "Hg10 mi
9:58 PM53 °FPartly cloudy.13 mph79%29.94 "Hg10 mi
8:58 PM56 °FThundershowers. Partly sunny.13 mph75%29.94 "Hg10 mi
8:01 PM61 °FThunderstorms. Partly sunny.8 mph55%30.07 "Hg7 mi
6:58 PM63 °FPartly sunny.13 mph58%29.90 "Hg10 mi
5:58 PM65 °FBroken clouds.14 mph49%29.90 "Hg10 mi
4:58 PM69 °FBroken clouds.12 mph41%29.88 "Hg10 mi
3:58 PM67 °FBroken clouds.13 mph37%29.89 "Hg10 mi
2:58 PM70 °FBroken clouds.5 mph34%29.87 "Hg10 mi
Weather by CustomWeather, © 2015

See weather overviewHow to use our weather pages